Location: Poughquag
(41.6090°N, 73.6820°W)
Time: 06:05:31
(UTC-05:00)

PCSat - Visible Passes

Search period start: 28 November 2023 00:00
Search period end: 08 December 2023 00:00
Orbit: 784 x 792 km, 67.0° (Epoch: 27 November)

Date Brightness Start Highest point End Pass type
(mag) Time Alt. Az. Time Alt. Az. Time Alt. Az.
28 Nov 12.3 04:13:49 10° SE 04:17:05 16° ESE 04:20:20 10° ENE visible
28 Nov 9.5 05:54:25 10° SW 05:59:49 69° WNW 06:05:14 10° NNE visible
29 Nov 12.6 03:44:25 10° ESE 03:45:51 11° ESE 03:47:17 10° E visible
29 Nov 9.6 05:22:55 10° SSW 05:28:19 86° ESE 05:33:46 10° NNE visible
30 Nov 10.0 04:51:33 10° SSW 04:56:53 63° ESE 05:02:14 10° NE visible
01 Dec 10.6 04:21:01 13° S 04:25:29 44° ESE 04:30:37 10° NE visible
01 Dec 10.4 06:04:19 10° WSW 06:08:59 29° NW 06:13:41 10° N visible
02 Dec 11.1 03:53:10 30° SE 03:54:07 32° ESE 03:58:52 10° NE visible
02 Dec 10.0 05:33:59 19° WSW 05:37:21 38° NW 05:42:25 10° NNE visible
03 Dec 11.8 03:24:16 20° E 03:24:16 20° E 03:26:57 10° ENE visible
03 Dec 9.7 05:05:02 48° W 05:05:47 51° NW 05:11:04 10° NNE visible
04 Dec 10.0 04:35:35 50° N 04:35:35 50° N 04:39:40 10° NNE visible
04 Dec 11.3 06:16:20 11° WNW 06:18:36 14° NW 06:21:21 10° N visible
05 Dec 11.2 04:05:51 27° NNE 04:05:51 27° NNE 04:08:12 10° NNE visible
05 Dec 11.0 05:46:34 18° NW 05:46:49 18° NW 05:50:26 10° N visible
06 Dec 12.1 03:35:53 14° NE 03:35:53 14° NE 03:36:39 10° NE visible
06 Dec 11.0 05:16:35 20° NNW 05:16:35 20° NNW 05:19:19 10° N visible
07 Dec 11.4 04:46:29 18° N 04:46:29 18° N 04:48:07 10° N visible
